Location: Aalen
(48.8330°N, 10.1000°E)
Time: 11:49:49
(UTC+02:00)

S-56A Canister/Altair - Pass Details

Date: 09 August 2021
Orbit: 632 x 2500 km, 38.9° (Epoch: 21 September)

Event Time Altitude Azimuth Distance (km) Brightness Sun altitude
Rises 21:01:20 0° 279° (W) 6,072 13.8 -3.2°
Reaches altitude 10° 21:07:32 10° 261° (W) 5,158 12.6 -4.1°
Maximum altitude 21:15:08 16° 231° (SW) 4,612 11.8 -5.2°
Drops below altitude 10° 21:22:29 10° 199° (SSW) 4,917 11.5 -6.2°
Sets 21:28:14 0° 180° (S) 5,656 11.6 -7.0°
